This is the latest recevied weather packets stored in our database for station/object SQ7ACP-3. If no packets are shown the sender has not sent any weather packets the latest 10 day(s).
| Time | Temp. | Humidity | Pressure | Rain* | Wind** | Luminosity | Snow |
|---|---|---|---|---|---|---|---|
| 1777998316 | 25.56° C | 27% | 1004.5 hPa | 0 mm | - | - | - |
| 1777997706 | 25.56° C | 26% | 1004.6 hPa | 0 mm | - | - | - |
| 1777996494 | 25.56° C | 27% | 1004.7 hPa | 0 mm | - | - | - |
| 1777995888 | 25.56° C | 26% | 1004.8 hPa | 0 mm | - | - | - |
| 1777995286 | 25.56° C | 25% | 1005.2 hPa | 0 mm | - | - | - |
| 1777991149 | 25.56° C | 26% | 1005.6 hPa | 0 mm | - | - | - |
| 1777989932 | 25.56° C | 27% | 1005.8 hPa | 0 mm | - | - | - |
| 1777988640 | 26.11° C | 27% | 1005.8 hPa | 0 mm | - | - | - |
| 1777988043 | 26.11° C | 27% | 1005.9 hPa | 0 mm | - | - | - |
| 1777987433 | 26.67° C | 24% | 1005.9 hPa | 0 mm | - | - | - |
| 1777986828 | 26.11° C | 23% | 1006 hPa | 0 mm | - | - | - |
| 1777986228 | 26.67° C | 26% | 1006.1 hPa | 0 mm | - | - | - |
| 1777985627 | 26.67° C | 27% | 1006.2 hPa | 0 mm | - | - | - |
| 1777985015 | 26.67° C | 27% | 1006.2 hPa | 0 mm | - | - | - |
| 1777984415 | 26.67° C | 27% | 1006.4 hPa | 0 mm | - | - | - |
| 1777983802 | 26.67° C | 26% | 1006.5 hPa | 0 mm | - | - | - |
| 1777983204 | 26.11° C | 24% | 1006.5 hPa | 0 mm | - | - | - |
| 1777982590 | 26.11° C | 23% | 1006.6 hPa | 0 mm | - | - | - |
| 1777981978 | 26.11° C | 24% | 1006.8 hPa | 0 mm | - | - | - |
| 1777981373 | 25.56° C | 23% | 1006.8 hPa | 0 mm | - | - | - |
| 1777980762 | 26.67° C | 22% | 1006.7 hPa | 0 mm | - | - | - |
| 1777980143 | 26.11° C | 23% | 1006.8 hPa | 0 mm | - | - | - |
| 1777979531 | 26.11° C | 23% | 1007 hPa | 0 mm | - | - | - |
| 1777978915 | 26.67° C | 24% | 1007 hPa | 0 mm | - | - | - |
| 1777978303 | 26.11° C | 26% | 1007.2 hPa | 0 mm | - | - | - |
* Rain latest hour (hover to see other rain measurements)
** Current wind speed in m/s (hover to see current wind gust speed)